This is the latest recevied weather packets stored in our database for station/object KB3UMW-13. If no packets are shown the sender has not sent any weather packets the latest 10 day(s).
| Time | Temp. | Humidity | Pressure | Rain* | Wind** | Luminosity | Snow |
|---|---|---|---|---|---|---|---|
| 1777753387 | 7.78° C | 60% | 1012 hPa | 0 mm | - | 180 W/m² | - |
| 1777753085 | 7.78° C | 60% | 1012.1 hPa | 0 mm | - | 260 W/m² | - |
| 1777752781 | 7.22° C | 63% | 1012.3 hPa | 0 mm | - | 246 W/m² | - |
| 1777752477 | 7.22° C | 57% | 1012.1 hPa | 0 mm | - | 211 W/m² | - |
| 1777752173 | 7.22° C | 61% | 1012.3 hPa | 0 mm | - | 126 W/m² | - |
| 1777751872 | 7.78° C | 59% | 1012.5 hPa | 0 mm | - | 130 W/m² | - |
| 1777751568 | 7.78° C | 55% | 1012.3 hPa | 0 mm | - | 201 W/m² | - |
| 1777751264 | 8.33° C | 62% | 1012.5 hPa | 0 mm | - | 249 W/m² | - |
| 1777750962 | 7.78° C | 58% | 1012.3 hPa | 0 mm | - | 276 W/m² | - |
| 1777750657 | 7.78° C | 51% | 1012.5 hPa | 0 mm | - | 158 W/m² | - |
| 1777750355 | 8.89° C | 53% | 1012.7 hPa | 0 mm | - | 231 W/m² | - |
| 1777750055 | 8.89° C | 55% | 1012.6 hPa | 0 mm | - | 341 W/m² | - |
| 1777749753 | 8.33° C | 48% | 1012.7 hPa | 0 mm | - | 283 W/m² | - |
| 1777749449 | 8.89° C | 53% | 1012.7 hPa | 0 mm | - | 235 W/m² | - |
| 1777749147 | 8.33° C | 56% | 1012.7 hPa | 0 mm | - | 261 W/m² | - |
| 1777748844 | 9.44° C | 47% | 1012.7 hPa | 0 mm | - | 317 W/m² | - |
| 1777748542 | 9.44° C | 57% | 1012.8 hPa | 0 mm | - | 1129 W/m² | - |
| 1777748241 | 9.44° C | 54% | 1012.8 hPa | 0 mm | - | 386 W/m² | - |
| 1777747938 | 8.89° C | 56% | 1012.8 hPa | 0 mm | - | 451 W/m² | - |
| 1777747634 | 10° C | 51% | 1012.9 hPa | 0 mm | - | 353 W/m² | - |
| 1777747330 | 8.33° C | 57% | 1013 hPa | 0 mm | - | 393 W/m² | - |
| 1777747027 | 7.78° C | 54% | 1013.1 hPa | 0 mm | - | 352 W/m² | - |
| 1777746723 | 7.78° C | 61% | 1012.9 hPa | 0 mm | - | 235 W/m² | - |
| 1777746418 | 8.33° C | 67% | 1013 hPa | 0 mm | - | 288 W/m² | - |
| 1777746114 | 7.78° C | 57% | 1013.2 hPa | 0 mm | - | 242 W/m² | - |
* Rain latest hour (hover to see other rain measurements)
** Current wind speed in m/s (hover to see current wind gust speed)